Location: Chemnitz
(49.5500°N, 11.5830°E)
Time: 17:52:35
(UTC+01:00)

ISS - Pass Details

Date: 11 November 2017
Orbit: 401 x 407 km, 51.6° (Epoch: 25 November)

Event Time Altitude Azimuth Distance (km) Brightness Sun altitude
Exits shadow 05:10:19 58° 35° (NE) 475 -3.4 -20.8°
Drops below altitude 10° 05:13:17 10° 89° (E) 1,456 0.2 -20.3°
Sets 05:15:23 0° 93° (E) 2,314 1.7 -20.0°
